Home > Weather > Auckland > Past weeks

Flag for New Zealand Past Weather in Auckland, New Zealand — Yesterday and Last 2 Weeks

Now
57 °F

Partly sunny.


Feels Like: 52 °F
Forecast: 50 / 60 °F
Wind: 28 mph from West

Location: Auckland Airport

Current Time: Aug 27, 2016 at 1:29:45 PM

Latest Report: Aug 27, 2016 at 1:00 PM


Visibility: N/A

Pressure: 29.98 "Hg

Humidity: 67%

Dew Point: 46 °F

Location of AucklandLocation

Past Weather in Auckland — Graph

°F

Auckland Temperature Yesterday

Maximum temperature yesterday: 64 °F (at 12:00 AM)
Minimum temperature yesterday: 55 °F (at 11:00 PM)
Average temperature yesterday: 62 °F

High & Low Weather Summary for the Past Weeks

 TemperatureHumidityPressure
High64 °F (Aug 26, 12:00 AM)100% (Aug 13, 3:30 AM)30.39 "Hg (Aug 13, 3:30 AM)
Low41 °F (Aug 14, 4:30 AM)51% (Aug 17, 1:30 PM)29.47 "Hg (Aug 26, 12:00 AM)
Average53 °F83%30.09 "Hg
* Reported Aug 12 12:00 PM — Aug 27 12:00 PM, Auckland, Weather by CustomWeather, © 2016

Note: Actual official high and low records may vary slightly from our data, if they occured in-between our weather recording intervals... More about our weather records

Advertising

Auckland Weather History for the Previous 24 Hours

Scroll right to see more
 ConditionsComfort  
Time TempWeatherWind HumidityBarometerVisibility
12:00 PM
Sat, Aug 27
55 °FLight rain. Broken clouds.23 mph82%29.98 "HgN/A
11:30 AM59 °FScattered clouds.29 mph63%29.98 "HgN/A
11:00 AM59 °FBroken clouds.26 mph59%29.98 "HgN/A
10:30 AM59 °FScattered clouds.31 mph63%29.98 "HgN/A
10:00 AM57 °FPartly sunny.26 mph67%29.98 "HgN/A
9:30 AM57 °FBroken clouds.20 mph72%29.95 "HgN/A
9:00 AM54 °FSprinkles. Partly sunny.26 mph77%29.95 "HgN/A
8:30 AM55 °FScattered clouds.22 mph63%29.95 "HgN/A
8:00 AM55 °FScattered clouds.22 mph63%29.92 "HgN/A
7:30 AM54 °FPartly sunny.23 mph77%29.89 "HgN/A
7:00 AM54 °FBroken clouds.20 mph77%29.89 "HgN/A
6:30 AM55 °FDrizzle. Broken clouds.25 mph67%29.89 "HgN/A
6:00 AM55 °FScattered clouds.25 mph67%29.86 "HgN/A
5:30 AM55 °FPartly cloudy.25 mph67%29.86 "HgN/A
5:00 AM55 °FPassing clouds.28 mph67%29.83 "HgN/A
4:30 AM55 °FPassing clouds.24 mph72%29.83 "HgN/A
4:00 AM55 °FPassing clouds.24 mph72%29.80 "HgN/A
3:30 AM55 °FPartly cloudy.28 mph72%29.80 "HgN/A
3:00 AM55 °FPartly cloudy.25 mph72%29.77 "HgN/A
2:30 AM55 °FPassing clouds.28 mph72%29.77 "HgN/A
2:00 AM55 °FPartly cloudy.28 mph72%29.77 "HgN/A
1:30 AM55 °FPartly cloudy.29 mph72%29.74 "HgN/A
1:00 AM54 °FSprinkles. Partly cloudy.30 mph88%29.74 "Hg4 mi
12:30 AM55 °FMostly cloudy.28 mph77%29.71 "HgN/A
12:00 AM55 °FSprinkles. Passing clouds.28 mph82%29.71 "HgN/A
11:30 PM
Fri, Aug 26
55 °FSprinkles. Overcast.31 mph88%29.68 "Hg5 mi
11:00 PM55 °FSprinkles. Passing clouds.32 mph82%29.68 "HgN/A
10:30 PM57 °FSprinkles. Mostly cloudy.35 mph82%29.65 "Hg6 mi
10:00 PM57 °FPassing clouds.32 mph82%29.62 "Hg5 mi
9:30 PM57 °FLight rain. Passing clouds.31 mph88%29.59 "Hg4 mi
9:00 PM57 °FMostly cloudy.31 mph88%29.56 "HgN/A
8:30 PM59 °FOvercast.31 mph82%29.53 "HgN/A
8:00 PM59 °FPassing clouds.25 mph82%29.50 "HgN/A
7:30 PM59 °FSprinkles. Partly cloudy.20 mph88%29.50 "HgN/A
7:00 PM59 °FLight rain. Passing clouds.22 mph88%29.50 "HgN/A
6:30 PM57 °FLight rain. Mostly cloudy.21 mph94%29.50 "Hg5 mi
6:00 PM57 °FSprinkles. Overcast.20 mph94%29.50 "Hg5 mi
5:30 PM57 °FSprinkles. Overcast.18 mph88%29.47 "HgN/A
5:00 PM61 °FScattered showers. Passing clouds.23 mph72%29.50 "HgN/A
4:30 PM61 °FScattered showers. Cloudy.25 mph72%29.47 "HgN/A
4:00 PM63 °FScattered showers. Broken clouds.20 mph73%29.50 "HgN/A
3:30 PM63 °FBroken clouds.26 mph68%29.47 "HgN/A
3:00 PM64 °FScattered showers. Broken clouds.25 mph68%29.50 "HgN/A
2:30 PM64 °FScattered showers. Partly sunny.25 mph73%29.50 "HgN/A
2:00 PM64 °FMostly cloudy.23 mph68%29.50 "HgN/A
1:30 PM64 °FBroken clouds.23 mph68%29.53 "HgN/A
1:00 PM64 °FPartly sunny.21 mph73%29.53 "HgN/A
Weather by CustomWeather, © 2016

See weather overviewHow to use our weather pages